TimePDT,TemperatureF,Dew PointF,Humidity,Sea Level PressureIn,VisibilityMPH,Wind Direction,Wind SpeedMPH,Gust SpeedMPH,PrecipitationIn,Events,Conditions,WindDirDegrees,DateUTC
12:53 AM,42.1,28.0,58,30.36,10.0,NE,9.2,-,N/A,,Clear,40,2012-10-04 07:53:00
1:53 AM,36.0,27.0,70,30.37,10.0,East,3.5,-,N/A,,Clear,80,2012-10-04 08:53:00
2:53 AM,36.0,27.0,70,30.36,10.0,NE,9.2,-,N/A,,Clear,50,2012-10-04 09:53:00
3:53 AM,36.0,27.0,70,30.35,10.0,NNE,9.2,-,N/A,,Clear,30,2012-10-04 10:53:00
4:53 AM,37.0,27.0,67,30.35,10.0,NNE,9.2,-,N/A,,Clear,30,2012-10-04 11:53:00
5:53 AM,35.1,26.1,70,30.36,10.0,NNE,6.9,-,N/A,,Clear,30,2012-10-04 12:53:00
6:53 AM,30.9,25.0,79,30.38,10.0,NNE,4.6,-,N/A,,Clear,30,2012-10-04 13:53:00
7:53 AM,36.0,26.1,67,30.38,10.0,NNE,5.8,-,N/A,,Clear,20,2012-10-04 14:53:00
8:53 AM,44.1,27.0,51,30.37,10.0,NE,9.2,-,N/A,,Clear,40,2012-10-04 15:53:00
9:53 AM,48.9,27.0,43,30.37,10.0,NE,13.8,19.6,N/A,,Clear,40,2012-10-04 16:53:00
10:53 AM,52.0,21.9,31,30.37,10.0,NNE,13.8,-,N/A,,Clear,30,2012-10-04 17:53:00
11:53 AM,55.0,19.9,25,30.35,10.0,NNE,13.8,-,N/A,,Clear,30,2012-10-04 18:53:00
12:53 PM,57.0,18.0,22,30.33,10.0,NE,12.7,16.1,N/A,,Clear,50,2012-10-04 19:53:00
1:53 PM,57.9,19.0,22,30.32,10.0,NE,6.9,19.6,N/A,,Clear,50,2012-10-04 20:53:00
2:53 PM,60.1,16.0,18,30.31,10.0,Variable,5.8,-,N/A,,Clear,0,2012-10-04 21:53:00
3:53 PM,57.9,15.1,19,30.30,10.0,Variable,3.5,17.3,N/A,,Clear,0,2012-10-04 22:53:00
4:53 PM,57.0,14.0,18,30.30,10.0,ENE,6.9,-,N/A,,Clear,70,2012-10-04 23:53:00
5:53 PM,54.0,15.1,22,30.31,10.0,East,5.8,-,N/A,,Clear,80,2012-10-05 00:53:00
6:53 PM,48.0,16.0,28,30.33,10.0,East,3.5,-,N/A,,Clear,80,2012-10-05 01:53:00
7:53 PM,37.9,15.1,39,30.35,10.0,Variable,3.5,-,N/A,,Clear,0,2012-10-05 02:53:00
8:53 PM,32.0,15.1,50,30.35,10.0,NNW,3.5,-,N/A,,Clear,330,2012-10-05 03:53:00
9:53 PM,28.0,15.1,58,30.35,10.0,NW,6.9,-,N/A,,Clear,320,2012-10-05 04:53:00
10:53 PM,28.0,15.1,58,30.35,10.0,NW,3.5,-,N/A,,Clear,320,2012-10-05 05:53:00
11:53 PM,27.0,17.1,66,30.36,10.0,West,3.5,-,N/A,,Clear,260,2012-10-05 06:53:00